Mobile, AL

10:54 AM CDT on July 24, 2017 (GMT -0500)
Mobile Regional

Weather History for KMOB - August, 2014

Change the Weather History Date:

Monday, August 11, 2014

  Actual Average Record
Temperature  
Mean Temperature 82 °F 82 °F  
Max Temperature 92 °F 91 °F 101 °F (2007)
Min Temperature 71 °F 73 °F 66 °F (1976)
Cooling Degree Days 17 17  
Month to date cooling degree days 182 187  
Year to date cooling degree days 1393 1598  
Since 1 June cooling degree days 1055 1153  
Growing Degree Days 31 (Base 50)    
Moisture  
Dew Point 73 °F    
Average Humidity 75    
Maximum Humidity 100    
Minimum Humidity 49    
Precipitation  
Precipitation 0.24 in 0.24 in 3.78 in (1970)
Month to date precipitation 0.92 2.75  
Year to date precipitation 55.49 42.95  
Sea Level Pressure  
Sea Level Pressure 29.99 in    
Wind  
Wind Speed 4 mph (WNW)    
Max Wind Speed 23 mph    
Max Gust Speed 27 mph    
Visibility 8 miles    
Events Rain , Thunderstorm    
T = Trace of Precipitation, MM = Missing Value Source: NWS Daily Summary

Daily Weather History Graph

Daily Weather History Graph

Search for Another Location

Airport or City:

Trip Planner

Search our weather history database for the weather conditions in past years. The results will help you decide how hot, cold, wet, or windy it might be!

Date:

Astronomy

Aug. 11, 2014 Rise Set
Actual Time 6:16 AM CDT 7:38 PM CDT
Civil Twilight 5:51 AM CDT 8:04 PM CDT
Nautical Twilight 5:20 AM CDT 8:34 PM CDT
Astronomical Twilight 4:49 AM CDT 9:06 PM CDT
Moon 8:17 PM CDT (8/11) 7:14 AM CDT (8/11)
Length of Visible Light 14h 13m
Length of Day
13h 21m
Full, 99% of the Moon is Illuminated
Aug 11
Full
Aug 17
Last Quarter
Aug 25
New
Sep 2
First Quarter
Sep 8
Full

Hourly Weather History & Observations

Time (CDT) Temp. Heat Index Dew Point Humidity Pressure Visibility Wind Dir Wind Speed Gust Speed Precip Events Conditions
12:56 AM 73.9 °F - 73.0 °F 97% 29.99 in 10.0 mi Calm Calm - N/A   Clear
1:56 AM 73.9 °F - 73.0 °F 97% 29.97 in 10.0 mi Calm Calm - N/A   Clear
2:56 AM 71.6 °F - 71.6 °F 100% 29.99 in 10.0 mi WNW 5.8 mph - N/A   Clear
3:56 AM 72.0 °F - 72.0 °F 100% 29.99 in 10.0 mi West 4.6 mph - N/A   Clear
4:56 AM 71.1 °F - 71.1 °F 100% 29.99 in 10.0 mi WNW 3.5 mph - N/A   Clear
5:56 AM 71.1 °F - 71.1 °F 100% 30.01 in 6.0 mi NW 5.8 mph - N/A   Scattered Clouds
6:56 AM 72.0 °F - 72.0 °F 100% 30.03 in 6.0 mi NW 3.5 mph - N/A   Scattered Clouds
7:56 AM 75.9 °F - 73.0 °F 91% 30.04 in 7.0 mi WNW 3.5 mph - N/A   Scattered Clouds
8:56 AM 79.0 °F - 72.0 °F 79% 30.04 in 10.0 mi NW 4.6 mph - N/A   Mostly Cloudy
9:56 AM 82.0 °F 86.7 °F 72.0 °F 71% 30.04 in 10.0 mi NW 4.6 mph - N/A   Mostly Cloudy
10:56 AM 84.9 °F 90.7 °F 72.0 °F 65% 30.05 in 10.0 mi NW 8.1 mph - N/A   Mostly Cloudy
11:56 AM 87.1 °F 94.5 °F 73.0 °F 63% 30.04 in 10.0 mi West 8.1 mph - N/A   Scattered Clouds
12:56 PM 89.1 °F 96.0 °F 72.0 °F 57% 30.02 in 10.0 mi West 8.1 mph - N/A   Scattered Clouds
1:56 PM 90.0 °F 96.4 °F 71.1 °F 54% 29.98 in 10.0 mi Variable 5.8 mph - N/A   Scattered Clouds
2:56 PM 91.0 °F 96.6 °F 70.0 °F 50% 29.97 in 10.0 mi West 6.9 mph - N/A   Scattered Clouds
3:56 PM 91.0 °F 98.2 °F 72.0 °F 53% 29.96 in 10.0 mi NW 5.8 mph - N/A   Scattered Clouds
4:54 PM 87.8 °F 95.6 °F 73.4 °F 62% 29.95 in 10.0 mi WSW 4.6 mph - N/A Thunderstorm Thunderstorm
4:56 PM 88.0 °F 95.6 °F 73.0 °F 61% 29.95 in 10.0 mi WSW 3.5 mph - N/A Thunderstorm Thunderstorm
5:30 PM 75.9 °F - 73.9 °F 94% 29.99 in 1.8 mi North 18.4 mph 26.5 mph 0.00 in Rain , Thunderstorm Heavy Thunderstorms and Rain
5:42 PM 73.9 °F - 73.9 °F 100% 29.97 in 1.8 mi North 8.1 mph - 0.17 in Rain , Thunderstorm Heavy Thunderstorms and Rain
5:56 PM 75.0 °F - 73.9 °F 96% 29.96 in 2.0 mi NNE 3.5 mph - 0.24 in Rain , Thunderstorm Light Thunderstorms and Rain
6:04 PM 75.2 °F - 73.4 °F 94% 29.96 in 3.0 mi Variable 3.5 mph - N/A Thunderstorm Mostly Cloudy
6:12 PM 75.9 °F - 73.9 °F 94% 29.95 in 3.0 mi ENE 5.8 mph - 0.00 in Thunderstorm Mostly Cloudy
6:25 PM 77.0 °F - 73.9 °F 90% 29.95 in 6.0 mi ENE 3.5 mph - 0.00 in Rain Light Rain
6:56 PM 77.0 °F - 75.2 °F 94% 29.95 in 7.0 mi SSE 4.6 mph - N/A   Mostly Cloudy
7:56 PM 75.9 °F - 75.0 °F 97% 29.95 in 10.0 mi WSW 3.5 mph - N/A   Mostly Cloudy
8:56 PM 75.9 °F - 75.0 °F 97% 29.96 in 10.0 mi Calm Calm - N/A   Mostly Cloudy
9:56 PM 75.0 °F - 73.9 °F 96% 29.98 in 10.0 mi West 3.5 mph - N/A   Scattered Clouds
10:56 PM 75.0 °F - 73.9 °F 96% 29.98 in 10.0 mi Calm Calm - N/A   Scattered Clouds
11:56 PM 73.9 °F - 73.9 °F 100% 29.97 in 10.0 mi Calm Calm - N/A   Clear